Theta_e
349 351 348 349 356 353 356 357 352 353 353 350 347 349 349 349 346 351 346 341 337 340 343 330 331 333 333 332 331 331 329 331 332 332 332 333 332 331 329 331 338 329 330 330 334 326 325 326 328
350 348 346 348 356 359 359 354 355 352 350 350 349 348 348 347 349 349 346 341 334 331 334 329 331 333 332 331 331 330 330 329 330 330 329 330 331 332 331 330 330 329 330 331 329 327 326 324 329
348 344 346 351 352 356 358 355 352 351 351 350 349 348 347 347 349 348 348 340 332 330 331 329 330 332 331 331 330 330 330 330 329 329 329 330 329 329 328 327 327 327 327 328 329 328 327 324 324
346 342 348 353 351 348 351 355 351 350 349 349 348 348 346 346 347 348 346 332 329 330 331 330 329 332 332 331 331 330 330 329 329 330 330 329 329 329 328 331 335 335 338 334 328 330 329 328 323
350 346 357 356 353 349 348 350 351 351 351 350 348 350 349 346 346 345 342 329 329 330 331 331 330 330 331 331 330 330 329 330 331 330 331 332 332 329 331 335 335 336 335 335 337 333 330 331 326
347 350 357 360 357 350 353 350 352 350 350 350 350 349 348 346 346 345 338 329 329 328 330 331 330 330 330 330 330 330 333 335 337 337 336 336 334 330 331 333 337 335 333 331 335 336 335 336 330
350 349 352 354 359 357 352 352 351 350 350 350 349 348 347 345 346 348 347 340 344 339 335 331 330 331 330 331 333 334 336 337 339 338 336 336 334 329 328 332 337 333 334 334 333 335 336 336 337
342 350 352 348 350 358 353 352 352 351 352 350 348 349 349 350 349 348 348 350 348 343 339 333 330 332 344 335 334 335 337 337 338 337 336 335 331 328 327 333 337 335 333 334 334 332 333 335 335
344 346 349 349 350 351 353 354 352 352 351 349 349 349 349 349 349 350 351 349 344 342 339 333 331 331 332 333 334 337 339 340 339 338 337 335 330 328 330 334 338 335 336 336 337 331 331 334 335
344 341 345 344 346 349 352 354 353 353 350 350 348 349 350 350 350 350 350 348 346 344 340 339 337 337 338 339 340 340 340 339 336 333 333 335 330 329 330 332 335 339 336 338 337 334 331 334 336
343 343 344 345 346 349 350 353 350 352 350 347 350 350 350 350 350 348 348 347 345 346 341 338 339 339 339 339 336 333 334 335 330 333 336 335 330 330 331 334 334 340 335 339 339 333 333 334 337
344 344 345 347 344 344 345 347 352 352 349 347 349 350 350 349 349 348 348 348 344 345 344 342 341 339 339 335 331 334 334 334 334 332 338 338 334 329 335 338 338 340 339 341 341 337 333 337 341
342 343 345 344 344 349 351 349 354 352 350 348 349 350 350 349 349 347 347 347 346 346 345 345 346 345 345 341 342 336 332 337 335 338 340 338 336 329 337 340 340 339 340 342 342 339 339 341 342
340 343 347 345 345 351 354 353 352 351 350 348 347 349 349 349 349 348 348 349 347 347 346 346 347 345 346 343 341 342 336 340 340 339 338 337 335 332 342 339 340 338 339 342 344 344 343 342 340
337 347 346 347 346 347 348 354 353 351 349 349 347 346 348 349 348 348 348 348 347 347 346 346 347 346 345 345 343 341 338 341 340 339 338 336 335 343 340 338 341 341 337 343 341 344 345 343 342
336 340 347 346 344 342 346 353 352 351 350 349 347 346 346 347 347 347 347 347 347 347 347 347 347 346 346 346 344 341 340 342 343 339 339 339 342 343 345 344 340 339 340 339 341 343 343 342 340
335 337 341 347 344 343 347 350 350 350 348 348 347 345 346 347 347 347 347 347 347 347 347 347 347 347 347 347 344 343 343 342 344 344 344 344 344 343 342 342 340 340 341 340 340 340 340 340 342
337 338 339 342 345 345 348 349 347 346 347 346 347 347 346 347 348 347 347 347 348 348 348 348 347 348 349 348 347 346 342 346 346 343 344 344 344 344 345 345 343 341 341 342 342 342 343 343 342
335 338 340 338 344 348 349 349 347 346 346 344 345 346 346 346 347 347 347 347 348 348 349 349 348 349 349 349 348 347 347 346 347 346 346 344 344 344 344 344 346 342 343 343 341 343 343 342 344
337 336 337 337 340 339 347 350 347 346 344 345 345 345 346 346 347 347 347 348 349 349 349 349 349 350 349 349 349 347 348 348 345 344 347 346 345 347 346 346 345 346 345 343 344 345 339 339 344
331 333 334 335 334 332 346 346 349 346 345 345 345 346 346 347 348 347 348 348 348 349 350 349 350 350 350 350 349 350 350 350 348 345 346 347 348 348 347 346 347 347 343 346 342 345 345 341 343
333 333 336 337 331 331 332 337 345 346 347 342 342 341 346 347 348 348 348 348 349 350 351 351 351 350 350 351 349 349 349 345 346 347 348 347 347 345 344 344 345 344 345 344 344 343 341 342 342
335 332 334 333 329 328 328 334 343 345 349 343 343 341 344 347 349 349 350 350 350 350 351 352 352 352 351 352 352 351 349 348 347 349 349 348 348 340 337 337 343 345 345 345 343 343 342 343 343
332 332 326 324 323 326 326 328 339 342 345 344 344 343 344 345 346 348 350 350 350 350 351 353 352 351 351 350 350 350 351 350 348 351 348 349 349 347 345 341 338 343 343 343 338 339 344 344 339
330 324 326 329 327 328 332 343 343 342 341 345 344 343 341 343 340 340 346 349 347 351 351 353 353 353 353 352 351 349 350 351 351 350 349 349 347 348 347 345 342 339 345 346 345 343 343 341 341
327 325 326 330 331 330 340 346 344 342 340 344 343 343 342 343 339 341 343 345 346 352 353 352 354 354 354 354 352 355 352 352 349 347 349 350 350 348 347 346 345 338 340 342 345 345 344 344 342
325 328 324 325 324 334 341 340 340 338 341 341 342 342 342 343 342 338 339 340 347 349 353 352 353 354 355 354 352 353 353 353 354 354 353 352 350 350 348 345 341 341 341 344 346 345 345 345 345
327 325 326 321 329 337 345 343 340 338 339 344 342 340 342 341 343 342 339 344 347 350 355 352 353 354 355 356 353 350 351 352 354 353 356 354 351 345 344 342 340 343 345 346 347 347 347 347 348
332 331 327 321 325 338 340 341 338 344 342 345 342 341 342 341 345 344 342 340 338 345 355 353 354 355 356 355 353 352 353 352 352 350 349 349 349 347 344 338 331 329 331 335 342 344 346 348 348
331 333 326 328 331 334 335 341 339 339 340 343 342 346 348 345 345 346 347 339 336 338 352 356 354 356 356 354 352 353 354 353 347 349 349 347 349 345 340 340 340 336 331 328 334 337 336 340 343
Wind_Speed
1 11 11 9 5 6 5 1 3 6 4 4 20 5 8 7 3 4 24 31 33 31 28 30 31 30 29 28 27 26 24 23 21 20 18 17 16 16 16 16 15 14 15 15 15 15 15 16 15
9 6 16 9 5 3 4 1 6 4 12 30 21 17 9 4 10 25 38 30 31 31 30 31 31 29 28 27 25 23 21 20 18 17 15 14 13 12 12 11 11 11 10 11 12 13 13 15 17
19 16 13 4 2 2 4 5 8 10 11 12 7 15 7 12 24 34 30 33 32 31 30 30 31 29 26 24 21 17 15 15 15 13 13 13 12 11 9 8 7 7 7 7 7 9 11 12 14
13 11 12 4 6 6 6 11 18 11 12 22 20 10 14 19 29 27 31 36 33 31 29 28 29 27 25 21 17 13 12 13 13 13 12 11 9 7 7 6 5 5 4 4 4 6 8 10 12
5 6 4 5 8 5 5 20 7 8 5 18 22 14 14 20 25 28 30 34 32 30 28 27 26 26 24 21 17 14 13 13 13 12 10 8 7 6 5 3 1 3 3 4 5 6 7 9 12
3 2 3 7 8 17 13 16 15 18 19 21 25 19 9 30 32 30 28 30 27 28 27 25 25 24 23 22 19 16 15 13 11 9 8 6 5 4 3 2 2 1 2 4 5 5 7 9 12
6 3 4 4 10 5 8 20 15 18 23 10 23 15 22 34 34 32 25 30 24 23 24 25 25 23 22 21 18 16 14 12 10 9 8 7 6 4 1 1 2 2 3 3 4 6 7 9 12
14 4 3 2 5 2 11 12 9 20 10 25 36 10 23 32 36 30 27 25 22 23 23 23 24 23 21 20 17 15 12 11 10 9 9 7 6 5 3 2 3 4 4 3 4 5 6 8 10
18 3 2 6 7 4 20 10 13 8 23 20 8 34 34 36 36 33 29 24 23 23 23 22 23 23 21 19 17 14 11 10 8 8 8 8 7 5 4 5 5 5 4 4 3 5 6 8 9
6 5 7 7 5 5 17 25 20 11 23 13 26 31 36 39 37 34 30 26 20 21 22 21 21 21 19 17 15 13 12 12 10 8 9 10 9 6 4 7 6 6 4 5 5 4 7 8 9
4 5 7 11 11 18 18 19 12 20 15 33 37 41 39 37 35 30 25 22 17 14 18 19 18 18 17 17 15 11 11 11 9 10 13 16 11 8 10 11 9 6 5 5 5 5 7 7 8
4 10 11 13 21 14 3 15 16 13 19 33 42 45 41 37 34 26 25 23 18 19 17 18 15 15 13 15 16 9 6 11 12 14 18 19 19 9 5 6 7 6 7 6 6 7 7 7 6
4 7 19 23 29 24 25 16 12 19 24 32 35 43 40 35 31 21 18 19 20 19 16 17 16 12 11 13 12 13 9 10 13 14 14 15 16 13 11 11 4 4 2 3 7 9 8 7 6
11 8 29 23 18 25 24 23 19 20 29 31 31 38 37 36 30 26 25 24 24 18 17 17 17 10 12 8 11 11 12 7 9 11 13 12 13 14 7 8 10 4 1 3 8 9 8 9 8
11 18 13 14 14 13 26 11 16 29 31 30 28 31 33 32 29 28 28 26 26 20 16 19 16 12 12 11 9 10 10 7 6 6 8 11 12 10 7 8 5 5 4 2 5 7 10 10 10
6 13 6 5 11 13 6 6 16 31 28 25 28 30 32 36 34 27 28 26 24 23 21 17 17 15 13 11 9 10 8 7 7 10 10 10 11 9 6 5 4 5 7 9 9 10 11 12 11
3 5 8 6 10 7 4 6 21 31 28 25 27 28 28 33 30 29 27 25 26 22 18 14 17 15 12 9 10 9 11 9 9 10 10 11 11 9 9 7 5 7 10 12 13 13 11 11 13
1 5 5 8 9 3 6 9 16 26 27 27 29 31 30 38 36 31 28 26 23 23 17 13 14 14 12 11 11 11 13 13 9 9 9 10 11 9 10 7 5 10 11 13 18 18 15 14 13
10 4 4 6 10 5 13 11 16 22 24 22 28 27 29 34 32 30 29 27 25 26 20 16 17 18 16 15 13 14 12 10 9 9 8 9 9 9 10 9 8 10 9 9 13 14 15 13 14
4 10 6 2 12 5 10 14 16 19 22 31 31 28 27 26 27 32 32 29 28 25 21 19 18 17 16 15 11 8 9 10 7 10 11 10 10 9 11 13 13 12 10 10 12 13 11 13 15
5 5 7 10 5 2 11 1 9 11 14 22 33 35 28 27 32 33 32 32 27 27 25 23 18 18 17 15 12 13 12 10 9 4 8 6 8 7 10 14 16 17 13 11 10 11 15 15 16
6 5 2 3 5 5 6 4 7 7 10 15 27 25 30 22 32 32 32 31 29 28 25 22 17 19 18 17 15 16 11 8 3 5 5 8 8 6 7 14 14 14 15 15 13 11 17 18 16
11 7 5 1 4 3 1 5 6 12 11 17 11 21 30 23 30 32 28 29 31 28 27 23 19 17 18 20 18 15 12 8 7 5 4 6 6 6 7 8 3 10 12 16 18 15 16 18 14
3 1 7 5 3 3 5 5 5 6 11 14 4 10 20 17 17 17 21 19 27 33 30 26 21 18 21 21 20 20 14 10 9 7 1 11 9 9 5 5 2 9 10 14 13 17 17 14 14
4 7 3 5 4 6 2 4 5 2 4 18 20 21 22 21 11 13 17 23 11 35 36 31 25 20 23 24 22 23 17 14 13 8 6 9 8 8 7 5 7 6 10 15 16 13 14 14 15
4 9 6 5 3 4 3 5 4 5 5 8 22 33 19 17 15 23 20 20 26 29 41 33 27 21 26 25 23 20 21 19 13 12 10 10 10 8 5 3 4 2 4 11 14 15 15 18 24
7 1 6 5 2 3 4 5 6 7 5 9 12 3 7 15 23 27 27 27 28 25 43 34 27 23 26 24 22 21 19 18 15 12 10 9 9 7 7 7 7 8 10 10 10 14 16 18 21
4 2 2 4 1 2 3 4 4 5 11 11 17 15 14 26 23 18 22 32 18 20 41 40 31 26 25 21 20 17 15 13 12 11 11 7 7 6 3 2 3 5 6 8 12 14 15 18 20
6 5 5 5 5 5 2 5 7 2 3 23 18 16 16 28 26 36 26 32 39 38 42 45 36 32 27 22 20 17 13 9 7 6 7 6 5 5 3 6 8 9 10 11 12 13 15 18 20
6 4 5 5 6 2 4 5 6 6 9 15 18 14 23 16 30 29 33 38 39 38 38 39 46 32 23 17 15 13 11 10 10 10 7 7 6 5 8 11 13 15 17 17 15 16 16 17 18
Wind_Direction
330 34 33 46 40 54 11 0 137 110 87 161 159 176 145 102 167 171 148 159 159 151 150 149 146 144 141 137 133 131 131 131 128 124 120 113 110 110 110 112 111 107 107 108 108 113 120 125 126
72 48 58 58 77 52 273 280 83 92 117 117 110 101 75 88 99 133 149 160 160 154 153 152 152 148 143 138 135 133 133 133 130 126 121 114 111 113 112 110 108 107 107 108 108 111 118 128 136
30 102 89 82 53 144 261 251 144 127 129 130 105 80 82 109 121 140 152 162 161 157 154 154 158 155 151 147 142 141 142 141 138 134 126 120 119 121 119 115 113 115 120 120 122 118 119 129 140
37 31 75 68 109 262 243 359 109 112 98 104 110 76 91 129 139 144 152 161 161 157 154 155 162 162 164 163 161 159 154 146 143 139 132 129 126 122 120 122 118 116 130 149 160 153 134 132 148
74 82 64 117 168 248 263 266 132 125 91 98 115 118 111 148 139 141 153 161 161 157 157 158 162 167 170 172 174 168 158 151 148 141 141 140 135 127 117 117 122 118 153 179 187 189 174 150 155
75 98 110 164 199 228 196 209 133 110 111 108 112 110 116 150 142 142 148 159 160 160 163 162 163 165 169 171 169 163 159 158 155 155 158 155 139 136 138 156 182 173 174 176 193 203 192 177 165
162 143 202 127 149 172 190 181 128 129 131 123 131 110 130 144 145 152 152 152 155 164 168 168 167 166 168 169 167 171 175 174 173 171 180 177 171 174 178 258 265 245 179 187 200 206 208 192 186
223 159 182 116 141 179 136 139 110 142 146 124 127 136 151 155 159 157 149 153 158 167 175 176 173 174 169 172 179 186 191 192 196 197 204 203 194 194 216 253 264 232 212 212 221 224 214 206 196
189 116 168 173 133 179 135 124 146 134 140 144 164 146 144 158 158 152 151 159 161 169 177 182 182 183 183 185 190 196 199 196 203 211 229 226 222 216 240 267 245 227 224 214 225 226 218 210 204
125 111 203 196 136 138 150 133 159 153 147 137 123 145 149 156 159 161 164 163 168 174 185 185 188 188 188 190 195 199 201 201 200 218 243 245 241 235 249 278 258 211 234 221 227 222 213 208 205
128 157 126 130 132 121 135 141 136 131 147 146 145 150 156 158 168 170 176 180 173 182 181 184 194 197 201 200 197 208 215 220 227 251 261 245 235 255 256 279 252 226 225 219 208 215 220 205 187
105 155 129 125 115 97 89 121 146 153 156 156 158 162 160 171 174 180 176 176 184 182 182 186 195 191 198 204 208 218 233 239 249 263 271 248 237 240 291 177 162 201 243 214 197 213 200 181 209
187 167 131 130 128 132 125 129 118 118 145 154 156 164 172 180 180 189 187 187 183 186 186 191 191 193 196 201 213 223 238 268 254 261 250 239 225 219 201 193 179 226 264 211 187 202 198 201 203
199 130 137 141 135 130 115 125 125 147 147 163 162 171 179 180 182 186 185 190 193 190 193 202 198 198 208 216 222 224 224 285 246 253 221 223 204 213 213 193 220 240 263 197 191 225 235 215 222
188 112 115 138 139 122 113 116 145 163 159 165 176 172 179 187 190 187 192 194 194 197 193 206 206 204 220 227 223 225 227 243 207 202 186 189 194 186 189 203 223 242 258 221 207 214 223 228 239
156 123 138 236 159 160 108 170 168 168 165 176 180 179 178 183 188 194 194 199 194 199 198 205 208 211 222 229 219 214 214 209 193 178 180 197 202 218 232 232 251 292 289 238 232 230 232 237 233
8 179 136 176 249 136 128 172 180 175 171 180 187 188 189 190 194 201 199 199 198 197 200 205 206 205 213 204 203 197 203 195 194 194 195 192 201 231 256 262 277 277 264 249 246 230 241 230 231
173 233 166 172 196 160 156 187 173 181 172 184 192 194 189 193 195 198 200 203 205 203 210 205 201 200 204 195 190 196 190 184 179 178 191 204 213 233 256 273 273 258 259 258 241 221 225 236 243
219 202 219 192 176 132 176 170 179 187 182 176 188 193 191 192 199 193 198 199 199 204 206 209 205 204 208 205 206 205 202 194 191 182 197 195 196 222 251 259 266 264 261 246 222 230 238 237 247
296 247 244 314 163 141 174 179 187 192 184 182 183 185 175 179 193 195 198 198 199 203 209 207 204 210 215 219 218 213 198 208 209 206 208 210 213 233 251 267 261 272 258 230 228 233 235 236 245
258 213 211 188 159 19 116 0 191 212 178 181 186 188 177 180 186 192 199 202 207 210 210 208 208 212 221 219 208 212 217 227 214 155 209 213 221 236 266 271 278 272 255 248 237 237 238 250 254
299 277 337 115 111 200 165 225 237 177 185 189 179 198 184 199 192 194 203 207 214 214 212 211 211 216 225 221 216 218 221 224 211 186 142 180 205 225 293 275 258 249 266 262 255 238 243 250 253
247 241 237 89 118 93 296 86 246 130 194 204 188 197 192 189 187 192 204 217 222 217 216 211 216 228 229 225 224 227 221 214 208 194 212 198 194 122 340 191 243 249 249 269 247 242 249 246 243
256 231 42 50 76 359 240 154 289 178 184 199 161 167 203 191 173 185 200 205 226 223 218 215 216 223 232 224 225 225 226 220 224 222 105 214 227 252 341 19 311 219 218 230 233 242 239 252 259
95 54 1 358 0 228 236 93 231 297 280 181 179 182 181 162 224 215 200 209 234 224 217 213 218 223 228 225 227 226 225 224 230 225 211 210 240 268 303 316 -0 244 236 241 235 243 244 255 268
213 155 157 202 204 257 8 203 249 169 240 178 175 178 171 175 201 190 232 236 239 224 223 210 214 219 225 222 219 222 232 234 234 238 233 237 247 270 281 277 331 299 258 252 258 257 255 251 262
266 192 190 121 123 77 296 294 305 158 261 109 101 134 269 229 204 226 231 249 236 232 222 212 213 213 219 222 217 215 220 219 221 229 228 220 234 259 278 282 280 282 278 264 267 259 259 260 260
150 176 28 10 138 349 277 277 233 311 120 72 106 62 179 205 208 223 239 225 225 228 225 215 211 205 206 215 219 215 215 219 223 232 235 243 242 231 238 304 332 319 312 280 272 272 273 274 270
6 10 39 118 135 161 195 265 215 87 57 118 130 135 157 198 202 198 211 243 227 235 225 213 208 202 198 198 206 200 197 202 208 204 189 185 210 221 287 312 316 308 299 295 290 295 295 285 285
113 154 108 104 297 91 122 280 55 122 88 76 125 143 103 162 195 198 220 243 240 256 233 215 215 199 186 194 193 181 173 181 163 159 164 190 228 245 265 277 284 291 300 299 291 289 283 287 292